KC9MWQ-13 Weather Reports


Display with metric or nautical units.
time (UTC)temp
F
wind
direction
speed
MPH
gust
MPH
rain 1hr
in
rain 24hr
in
rain mn
in
humidity
%
barometer
mb
20260906073203 66 317 1.0 2.0 0.00 0.00 0.00 98 1017.2
20260906072658 66 342 0.0 0.0 0.00 0.00 0.00 98 1017.2
20260906072154 67 19 1.0 2.0 0.00 0.00 0.00 97 1017.0
20260906071650 67 5 1.0 2.0 0.00 0.00 0.00 97 1017.0
20260906071149 67 314 1.0 2.0 0.00 0.00 0.00 97 1017.2
20260906070646 68 311 0.0 0.0 0.00 0.00 0.00 97 1017.1
20260906070141 68 346 2.0 3.0 0.00 0.00 0.00 98 1017.2
20260906065641 68 313 2.0 2.0 0.00 0.00 0.00 99 1017.2
20260906065136 68 352 1.0 2.0 0.00 0.00 0.00 99 1017.3
20260906064632 68 22 2.0 2.0 0.00 0.00 0.00 99 1017.3
20260906064127 68 311 1.0 2.0 0.00 0.00 0.00 99 1017.2
20260906063622 68 8 0.0 1.0 0.00 0.00 0.00 99 1017.4
20260906063118 67 318 2.0 3.0 0.00 0.00 0.00 99 1017.4
20260906062614 68 305 2.0 3.0 0.00 0.00 0.00 99 1017.3
20260906062112 68 17 2.0 5.0 0.00 0.00 0.00 99 1017.1
20260906061609 68 309 3.0 3.0 0.00 0.00 0.00 99 1017.2
20260906061108 68 339 1.0 2.0 0.00 0.00 0.00 99 1017.2
20260906060605 68 327 2.0 2.0 0.00 0.00 0.00 99 1016.9
20260906055557 68 338 1.0 1.0 0.00 0.00 0.00 99 1017.0
20260906055053 68 50 2.0 3.0 0.00 0.00 0.00 99 1017.0
20260906054552 68 331 2.0 3.0 0.00 0.00 0.00 99 1017.1
20260906054048 68 341 1.0 2.0 0.00 0.00 0.00 99 1016.7
20260906053544 68 302 0.0 1.0 0.00 0.00 0.00 99 1016.9
20260906053039 68 326 0.0 0.0 0.00 0.00 0.00 99 1017.0
20260906052535 68 333 1.0 2.0 0.00 0.00 0.00 99 1016.8
20260906052032 68 315 1.0 1.0 0.00 0.00 0.00 99 1016.7
20260906051527 68 313 0.0 0.0 0.00 0.00 0.00 99 1016.9
20260906051022 68 316 1.0 2.0 0.00 0.00 0.00 99 1016.7
20260906050518 68 320 1.0 1.0 0.00 0.00 0.00 99 1016.7
20260906050012 69 355 1.0 2.0 0.00 0.00 0.00 99 1016.7
20260906045510 69 302 1.0 1.0 0.00 0.00 0.00 99 1016.8
20260906045007 68 304 1.0 1.0 0.00 0.00 0.00 99 1016.9
20260906044502 68 25 3.0 3.0 0.00 0.00 0.00 99 1016.6
20260906043957 68 351 2.0 2.0 0.00 0.00 0.00 99 1016.6
20260906043453 68 307 0.0 0.0 0.00 0.00 0.00 99 1016.7
20260906042949 68 319 1.0 1.0 0.00 0.00 0.00 99 1016.5
20260906042448 68 297 0.0 1.0 0.00 0.00 0.00 99 1016.6
20260906041948 68 301 0.0 1.0 0.00 0.00 0.00 99 1016.8
20260906041444 68 299 0.0 0.0 0.00 0.00 0.00 99 1016.8
20260906040943 68 305 1.0 1.0 0.00 0.00 0.00 99 1016.7
20260906040439 68 298 0.0 0.0 0.00 0.00 0.00 99 1016.7
20260906035934 68 326 1.0 1.0 0.00 0.59 0.59 99 1016.6
20260906035429 68 29 1.0 1.0 0.00 0.59 0.59 99 1016.7
20260906034924 69 328 0.0 1.0 0.00 0.59 0.59 99 1016.6
20260906034419 69 352 2.0 3.0 0.00 0.59 0.59 99 1016.8
20260906033914 69 333 1.0 1.0 0.00 0.59 0.59 99 1016.6
20260906033409 69 29 0.0 0.0 0.00 0.59 0.59 99 1016.6
20260906032905 69 299 0.0 0.0 0.00 0.59 0.59 99 1016.6
20260906032401 69 295 0.0 0.0 0.00 0.59 0.59 99 1016.6
20260906031855 69 298 0.0 0.0 0.00 0.59 0.59 99 1016.5
20260906031351 69 299 0.0 0.0 0.00 0.59 0.59 99 1016.5
20260906030846 69 309 0.0 0.0 0.00 0.59 0.59 99 1016.3
20260906030341 69 304 1.0 1.0 0.00 0.59 0.59 99 1016.6
20260906025835 70 33 4.0 5.0 0.00 0.59 0.59 99 1016.3
20260906025329 70 332 2.0 2.0 0.00 0.59 0.59 99 1016.3
20260906024828 70 315 3.0 5.0 0.00 0.59 0.59 99 1016.4
20260906024328 70 335 2.0 3.0 0.00 0.59 0.59 99 1016.1
20260906023823 70 13 1.0 2.0 0.00 0.59 0.59 99 1015.9
20260906023319 70 47 4.0 5.0 0.00 0.59 0.59 99 1015.9
20260906022814 70 64 3.0 3.0 0.00 0.59 0.59 99 1016.0
20260906022309 71 303 2.0 2.0 0.00 0.59 0.59 99 1016.2
20260906021805 71 318 1.0 2.0 0.00 0.59 0.59 99 1015.7
20260906021304 71 313 1.0 1.0 0.00 0.59 0.59 99 1015.8
20260906020759 71 307 2.0 3.0 0.00 0.59 0.59 99 1016.0
20260906020258 71 286 2.0 3.0 0.00 0.59 0.59 99 1015.8
20260906015753 71 245 0.0 1.0 0.00 0.59 0.59 99 1015.8
20260906015251 72 53 3.0 3.0 0.00 0.59 0.59 99 1015.4
20260906014746 72 317 2.0 2.0 0.00 0.59 0.59 99 1015.6
20260906014242 72 274 1.0 2.0 0.00 0.59 0.59 99 1015.7
20260906013738 72 297 1.0 1.0 0.00 0.59 0.59 99 1015.6
20260906013237 72 343 4.0 7.0 0.00 0.59 0.59 99 1015.3
20260906012733 72 350 3.0 3.0 0.00 0.59 0.59 99 1015.5
20260906012228 73 29 2.0 2.0 0.00 0.59 0.59 99 1015.4
20260906011723 73 306 2.0 2.0 0.00 0.59 0.59 99 1015.2
20260906011223 73 34 3.0 6.0 0.00 0.59 0.59 99 1015.2
20260906010719 73 37 3.0 3.0 0.00 0.59 0.59 99 1015.0
20260906010215 73 13 2.0 3.0 0.00 0.59 0.59 99 1015.1
20260906005709 73 333 1.0 2.0 0.00 0.59 0.59 99 1015.0
20260906005209 73 34 2.0 3.0 0.00 0.59 0.59 99 1014.9
20260906004708 74 315 2.0 2.0 0.00 0.59 0.59 99 1014.9
20260906004203 74 332 2.0 3.0 0.00 0.59 0.59 99 1014.6
20260906003658 74 332 1.0 2.0 0.00 0.59 0.59 99 1015.0
20260906003153 74 317 0.0 1.0 0.00 0.59 0.59 99 1014.7
20260906002648 74 293 1.0 2.0 0.00 0.59 0.59 99 1015.0
20260906002143 74 14 3.0 5.0 0.00 0.59 0.59 99 1014.6
20260906001638 74 11 3.0 3.0 0.00 0.59 0.59 99 1014.3
20260906001138 75 29 3.0 5.0 0.00 0.59 0.59 99 1014.3
20260906000634 75 23 6.0 7.0 0.00 0.59 0.59 99 1014.3
20260906000129 75 340 2.0 2.0 0.00 0.59 0.59 99 1014.1
20260905235628 76 110 3.0 3.0 0.00 0.59 0.59 99 1014.4
20260905235123 76 296 0.0 0.0 0.00 0.59 0.59 99 1014.2
20260905234618 76 7 2.0 2.0 0.42 0.59 0.59 99 1014.7
20260905234114 76 3 2.0 5.0 2.41 0.59 0.59 99 1014.5
20260905233608 77 6 3.0 3.0 3.05 0.51 0.51 99 1014.5
20260905233103 80 35 10.0 13.0 1.02 0.17 0.17 99 1014.7
20260905232558 81 331 3.0 5.0 0.00 0.00 0.00 93 1014.1
20260905232054 81 226 1.0 1.0 0.00 0.00 0.00 93 1014.0
20260905231548 81 304 2.0 2.0 0.00 0.00 0.00 93 1013.7
20260905231045 82 56 4.0 6.0 0.00 0.00 0.00 92 1013.7
20260905230544 83 317 1.0 2.0 0.00 0.00 0.00 90 1013.7
20260905230043 84 297 0.0 0.0 0.00 0.00 0.00 90 1013.7
20260905225537 84 39 1.0 2.0 0.00 0.00 0.00 88 1013.5
20260905225032 84 295 2.0 2.0 0.00 0.00 0.00 88 1013.7
20260905224527 84 310 1.0 2.0 0.00 0.00 0.00 88 1013.8
20260905224026 84 1 2.0 3.0 0.00 0.00 0.00 88 1013.9
20260905223525 84 311 2.0 2.0 0.00 0.00 0.00 88 1013.7
20260905223019 84 310 1.0 1.0 0.00 0.00 0.00 88 1013.7
20260905222514 84 309 1.0 1.0 0.00 0.00 0.00 88 1013.6
20260905222009 84 308 2.0 2.0 0.00 0.00 0.00 88 1013.6
20260905221506 84 345 1.0 1.0 0.00 0.00 0.00 88 1013.7
20260905221002 84 346 4.0 6.0 0.00 0.00 0.00 87 1013.7
20260905220457 84 294 3.0 3.0 0.00 0.00 0.00 88 1013.5
20260905215956 85 297 1.0 1.0 0.00 0.00 0.00 88 1013.6
20260905215452 85 296 2.0 3.0 0.00 0.00 0.00 89 1013.3
20260905214948 85 341 1.0 2.0 0.00 0.00 0.00 88 1013.2
20260905214443 85 303 3.0 5.0 0.00 0.00 0.00 87 1013.4
20260905213938 85 294 3.0 5.0 0.00 0.00 0.00 87 1013.2
20260905213434 85 307 3.0 3.0 0.00 0.00 0.00 87 1013.5
20260905212929 85 291 1.0 1.0 0.00 0.00 0.00 88 1013.2
20260905212424 84 286 2.0 3.0 0.00 0.00 0.00 88 1013.4
20260905211923 85 309 2.0 2.0 0.00 0.00 0.00 88 1013.4
20260905211419 86 337 2.0 2.0 0.00 0.00 0.00 86 1013.2
20260905210914 86 288 1.0 2.0 0.00 0.00 0.00 86 1013.2
20260905210409 85 313 3.0 3.0 0.00 0.00 0.00 87 1013.1
20260905205908 85 339 1.0 2.0 0.00 0.00 0.00 88 1013.4
20260905205404 86 311 2.0 2.0 0.00 0.00 0.00 86 1013.5
20260905204902 86 292 3.0 3.0 0.00 0.00 0.00 86 1013.5
20260905204359 85 333 3.0 3.0 0.00 0.00 0.00 86 1013.4
20260905203857 85 316 3.0 3.0 0.00 0.00 0.00 88 1013.4
20260905203353 88 36 5.0 6.0 0.00 0.00 0.00 86 1013.5
20260905202848 88 332 3.0 3.0 0.00 0.00 0.00 82 1013.4
20260905202343 87 342 5.0 7.0 0.00 0.00 0.00 81 1013.8
20260905201838 87 307 1.0 2.0 0.00 0.00 0.00 83 1013.6
20260905201334 88 343 3.0 3.0 0.00 0.00 0.00 79 1013.8
20260905200828 88 325 2.0 2.0 0.00 0.00 0.00 82 1013.7
20260905200326 87 298 1.0 2.0 0.00 0.00 0.00 83 1013.8
20260905195822 88 277 1.0 2.0 0.00 0.00 0.00 82 1013.8
20260905195317 88 309 1.0 2.0 0.00 0.00 0.00 82 1013.7
20260905194813 89 326 0.0 1.0 0.00 0.00 0.00 82 1013.8
20260905194307 88 313 2.0 2.0 0.00 0.00 0.00 80 1013.9
20260905193806 88 322 3.0 3.0 0.00 0.00 0.00 80 1013.7
20260905193301 88 270 2.0 3.0 0.00 0.00 0.00 79 1013.9
20260905192756 88 283 1.0 2.0 0.00 0.00 0.00 79 1014.2
20260905192253 88 319 3.0 5.0 0.00 0.00 0.00 79 1014.1
20260905191752 88 287 1.0 2.0 0.00 0.00 0.00 80 1014.1
20260905191250 89 358 2.0 3.0 0.00 0.00 0.00 80 1014.1
20260905190749 88 297 0.0 0.0 0.00 0.00 0.00 78 1014.1
20260905190243 89 297 2.0 3.0 0.00 0.00 0.00 80 1014.4
20260905185742 89 261 3.0 5.0 0.00 0.00 0.00 77 1014.2
20260905185237 89 287 2.0 2.0 0.00 0.00 0.00 78 1014.2
20260905184737 89 289 1.0 1.0 0.00 0.00 0.00 79 1014.4
20260905184236 88 274 5.0 6.0 0.00 0.00 0.00 77 1014.2
20260905183735 88 302 2.0 3.0 0.00 0.00 0.00 78 1014.3
20260905183231 88 271 2.0 2.0 0.00 0.00 0.00 77 1014.4
20260905182725 89 294 2.0 2.0 0.00 0.00 0.00 78 1014.5
20260905182225 88 279 2.0 2.0 0.00 0.00 0.00 79 1014.5
20260905181720 88 274 2.0 2.0 0.00 0.00 0.00 79 1014.5
20260905181219 88 272 2.0 2.0 0.00 0.00 0.00 78 1014.6
20260905180714 87 287 1.0 2.0 0.00 0.00 0.00 79 1014.7
20260905180209 87 282 1.0 2.0 0.00 0.00 0.00 80 1014.7
20260905175709 86 292 0.0 0.0 0.00 0.00 0.00 83 1014.6
20260905175203 85 293 0.0 0.0 0.00 0.00 0.00 82 1015.0
20260905174659 86 249 1.0 3.0 0.00 0.00 0.00 81 1014.7
20260905174154 84 281 0.0 1.0 0.00 0.00 0.00 85 1014.9
20260905173650 83 272 0.0 1.0 0.00 0.00 0.00 84 1015.3
20260905173146 82 281 0.0 0.0 0.00 0.00 0.00 85 1015.2
20260905172645 82 284 1.0 1.0 0.00 0.00 0.00 85 1015.4
20260905172139 81 278 1.0 1.0 0.00 0.00 0.00 86 1015.1
20260905171636 82 304 1.0 2.0 0.00 0.00 0.00 87 1015.6
20260905171131 83 284 0.0 1.0 0.00 0.00 0.00 86 1015.6
20260905170628 83 278 0.0 0.0 0.00 0.00 0.00 84 1015.3
20260905170123 84 271 2.0 3.0 0.00 0.00 0.00 84 1015.5
20260905165617 83 291 3.0 7.0 0.00 0.00 0.00 84 1015.4
20260905165113 83 257 1.0 2.0 0.00 0.00 0.00 84 1015.6
20260905164608 82 265 2.0 2.0 0.00 0.00 0.00 84 1015.5
20260905164107 81 157 3.0 3.0 0.00 0.00 0.00 85 1015.6
20260905163603 80 272 1.0 1.0 0.00 0.00 0.00 87 1015.4
20260905163100 81 287 0.0 0.0 0.00 0.00 0.00 86 1015.7
20260905162556 81 273 4.0 5.0 0.00 0.00 0.00 86 1015.8
20260905162055 80 237 4.0 6.0 0.00 0.00 0.00 85 1015.7
20260905161549 81 283 4.0 6.0 0.00 0.00 0.00 84 1015.7
20260905161047 81 176 4.0 5.0 0.00 0.00 0.00 86 1015.9
20260905160546 81 239 1.0 2.0 0.00 0.00 0.00 86 1016.1
20260905160046 81 260 2.0 2.0 0.00 0.00 0.00 88 1015.9
20260905155546 80 283 2.0 2.0 0.00 0.00 0.00 87 1015.9
20260905155044 79 163 3.0 3.0 0.00 0.00 0.00 87 1015.7
20260905154539 78 211 1.0 2.0 0.00 0.00 0.00 90 1015.8
20260905154035 78 270 3.0 5.0 0.00 0.00 0.00 89 1015.7
20260905153531 77 275 2.0 2.0 0.00 0.00 0.00 91 1015.8
20260905153030 77 278 1.0 1.0 0.00 0.00 0.00 91 1015.6
20260905152525 77 264 1.0 2.0 0.00 0.00 0.00 91 1015.6
20260905152021 77 280 1.0 2.0 0.00 0.00 0.00 90 1015.6
20260905151516 77 290 0.0 0.0 0.00 0.00 0.00 90 1015.8
20260905151011 77 252 2.0 3.0 0.00 0.00 0.00 90 1016.0
20260905150506 77 235 2.0 2.0 0.00 0.00 0.00 91 1016.1
20260905150003 76 275 1.0 2.0 0.00 0.00 0.00 91 1015.7
20260905145457 75 278 0.0 0.0 0.00 0.00 0.00 94 1015.6
20260905144956 74 275 0.0 0.0 0.00 0.00 0.00 95 1015.9
20260905144452 73 283 0.0 0.0 0.00 0.00 0.00 96 1015.8
20260905143951 73 282 0.0 0.0 0.00 0.00 0.00 96 1015.6
20260905143450 73 285 0.0 0.0 0.00 0.00 0.00 96 1015.8
20260905142945 73 291 0.0 0.0 0.00 0.00 0.00 96 1015.8
20260905142444 73 285 0.0 0.0 0.00 0.00 0.00 95 1015.6
20260905141939 73 278 0.0 0.0 0.00 0.00 0.00 96 1015.5
20260905141434 73 285 0.0 0.0 0.00 0.00 0.00 96 1015.8
20260905140931 73 293 0.0 0.0 0.00 0.00 0.00 96 1015.6
20260905140425 73 287 0.0 0.0 0.00 0.00 0.00 96 1015.6
20260905135924 73 279 0.0 0.0 0.00 0.00 0.00 95 1015.2
20260905135420 73 276 0.0 0.0 0.00 0.00 0.00 95 1015.2
20260905134915 73 246 3.0 5.0 0.00 0.00 0.00 95 1015.3
20260905134414 73 234 5.0 6.0 0.00 0.00 0.00 95 1015.1
20260905133909 73 272 1.0 2.0 0.00 0.00 0.00 95 1015.2
20260905133404 74 266 2.0 3.0 0.00 0.00 0.00 95 1015.1
20260905132903 73 245 3.0 5.0 0.00 0.00 0.00 97 1015.1
20260905132358 72 283 1.0 1.0 0.00 0.00 0.00 98 1014.9
20260905131852 72 237 3.0 3.0 0.00 0.00 0.00 97 1015.0
20260905131348 73 225 4.0 6.0 0.00 0.00 0.00 96 1015.2
20260905130843 73 270 3.0 5.0 0.00 0.00 0.00 97 1015.3
20260905130342 72 265 3.0 5.0 0.00 0.00 0.00 97 1015.0
20260905125837 72 270 1.0 1.0 0.00 0.00 0.00 98 1015.0
20260905125332 71 280 0.0 1.0 0.00 0.00 0.00 99 1014.6
20260905124828 71 262 1.0 2.0 0.00 0.00 0.00 99 1014.9
20260905124324 71 260 3.0 5.0 0.00 0.00 0.00 99 1015.0
20260905123819 70 178 1.0 3.0 0.00 0.00 0.00 99 1015.2
20260905123316 70 262 2.0 3.0 0.00 0.00 0.00 99 1015.3
20260905122815 70 274 1.0 1.0 0.00 0.00 0.00 99 1015.1
20260905122314 70 275 1.0 1.0 0.00 0.00 0.00 99 1015.1
20260905121810 69 286 2.0 3.0 0.00 0.00 0.00 99 1015.2
20260905121307 69 263 3.0 3.0 0.00 0.00 0.00 99 1015.3
20260905120805 69 241 3.0 5.0 0.00 0.00 0.00 99 1015.4
20260905120301 69 226 1.0 2.0 0.00 0.00 0.00 99 1015.3
20260905115755 69 282 0.0 0.0 0.00 0.00 0.00 99 1015.0
20260905115255 69 237 2.0 2.0 0.00 0.00 0.00 99 1015.2
20260905114754 69 273 1.0 1.0 0.00 0.00 0.00 99 1015.3
20260905114253 69 278 0.0 0.0 0.00 0.00 0.00 99 1015.3
20260905113753 69 286 1.0 2.0 0.00 0.00 0.00 99 1015.2
20260905113249 69 277 1.0 1.0 0.00 0.00 0.00 99 1015.6
20260905112744 69 265 0.0 0.0 0.00 0.00 0.00 99 1015.3
20260905112238 69 260 0.0 0.0 0.00 0.00 0.00 99 1015.3
20260905111733 69 268 2.0 3.0 0.00 0.00 0.00 99 1015.3
20260905111227 69 268 2.0 5.0 0.00 0.00 0.00 99 1015.3
20260905110726 69 210 2.0 3.0 0.00 0.00 0.00 99 1015.2
20260905110221 69 253 2.0 2.0 0.00 0.00 0.00 99 1015.2
20260905105717 69 251 3.0 3.0 0.00 0.00 0.00 99 1015.2
20260905105215 69 273 1.0 1.0 0.00 0.00 0.00 99 1015.0
20260905104710 69 249 1.0 1.0 0.00 0.00 0.00 99 1015.1
20260905104207 69 273 1.0 1.0 0.00 0.00 0.00 99 1015.3
20260905103701 69 264 2.0 2.0 0.00 0.00 0.00 99 1015.4
20260905103157 69 289 0.0 1.0 0.00 0.00 0.00 99 1015.2
20260905102653 69 277 0.0 0.0 0.00 0.00 0.00 99 1015.3
20260905102149 69 239 1.0 2.0 0.00 0.00 0.00 99 1015.4
20260905101648 69 188 4.0 6.0 0.00 0.00 0.00 99 1015.2
20260905101146 69 138 4.0 6.0 0.00 0.00 0.00 99 1015.5
20260905100642 70 186 2.0 2.0 0.00 0.00 0.00 99 1015.4
20260905100137 70 129 3.0 6.0 0.00 0.00 0.00 99 1015.6
20260905095630 70 280 2.0 3.0 0.00 0.00 0.00 99 1015.5
20260905095126 70 245 2.0 2.0 0.00 0.00 0.00 98 1015.5
20260905094621 70 277 1.0 2.0 0.00 0.00 0.00 98 1015.9
20260905094115 70 274 1.0 2.0 0.00 0.00 0.00 97 1015.8
20260905093615 70 287 0.0 0.0 0.00 0.00 0.00 97 1015.9
20260905093111 70 289 0.0 1.0 0.00 0.00 0.00 97 1015.7
20260905092611 70 168 2.0 3.0 0.00 0.00 0.00 97 1015.4
20260905092107 70 290 2.0 2.0 0.00 0.00 0.00 97 1015.4
20260905091606 70 159 2.0 3.0 0.00 0.00 0.00 98 1015.3
20260905091100 70 116 2.0 6.0 0.00 0.00 0.00 98 1015.5
20260905090554 71 1 2.0 5.0 0.00 0.00 0.00 99 1015.7
20260905090050 73 64 4.0 5.0 0.00 0.00 0.00 99 1015.4
20260905085548 74 144 4.0 8.0 0.00 0.00 0.00 99 1015.1
20260905085044 74 247 3.0 3.0 0.00 0.00 0.00 99 1015.1
20260905084544 74 297 0.0 0.0 0.00 0.00 0.00 99 1014.5
20260905084039 74 285 0.0 0.0 0.00 0.00 0.00 99 1014.1
20260905083533 74 282 0.0 0.0 0.00 0.00 0.00 99 1014.3
20260905083030 74 284 0.0 0.0 0.00 0.00 0.00 99 1014.4
20260905082525 74 279 0.0 0.0 0.00 0.00 0.00 99 1014.4
20260905082021 74 270 0.0 0.0 0.00 0.00 0.00 99 1014.1
20260905081515 73 281 0.0 0.0 0.00 0.00 0.00 99 1014.4
20260905081015 73 282 0.0 0.0 0.00 0.00 0.00 99 1014.2
20260905080509 73 287 0.0 0.0 0.00 0.00 0.00 99 1014.1
20260905080010 73 286 0.0 0.0 0.00 0.00 0.00 99 1014.2
20260905075458 73 292 0.0 0.0 0.00 0.00 0.00 99 1014.0
20260905074956 73 291 0.0 0.0 0.00 0.00 0.00 99 1014.2
20260905074452 73 285 0.0 0.0 0.00 0.00 0.00 99 1013.8
20260905073948 73 293 0.0 0.0 0.00 0.00 0.00 99 1014.1